TimeEDT,TemperatureF,Dew PointF,Humidity,Sea Level PressureIn,VisibilityMPH,Wind Direction,Wind SpeedMPH,Gust SpeedMPH,PrecipitationIn,Events,Conditions,WindDirDegrees,DateUTC
12:56 AM,54.0,41.0,62,30.00,10.0,NNW,8.1,-,N/A,,Clear,340,2012-10-07 04:56:00
1:56 AM,51.1,41.0,68,30.01,10.0,Calm,Calm,-,N/A,,Clear,0,2012-10-07 05:56:00
2:56 AM,46.9,41.0,80,30.01,10.0,Calm,Calm,-,N/A,,Clear,0,2012-10-07 06:56:00
3:56 AM,46.0,41.0,83,30.01,10.0,Calm,Calm,-,N/A,,Clear,0,2012-10-07 07:56:00
4:56 AM,45.0,41.0,86,30.03,10.0,Calm,Calm,-,N/A,,Clear,0,2012-10-07 08:56:00
5:56 AM,43.0,39.9,89,30.05,10.0,Calm,Calm,-,N/A,,Clear,0,2012-10-07 09:56:00
6:56 AM,43.0,39.9,89,30.08,10.0,Calm,Calm,-,N/A,,Clear,0,2012-10-07 10:56:00
7:56 AM,46.0,42.1,86,30.08,10.0,North,3.5,-,N/A,,Clear,10,2012-10-07 11:56:00
8:56 AM,55.0,43.0,64,30.10,10.0,North,3.5,-,N/A,,Clear,360,2012-10-07 12:56:00
9:56 AM,57.0,39.0,51,30.09,10.0,Variable,6.9,-,N/A,,Partly Cloudy,0,2012-10-07 13:56:00
10:56 AM,57.9,39.9,51,30.09,10.0,North,4.6,-,N/A,,Overcast,360,2012-10-07 14:56:00
11:56 AM,55.9,39.9,55,30.10,10.0,NW,9.2,-,N/A,,Overcast,320,2012-10-07 15:56:00
12:56 PM,55.0,44.1,67,30.09,10.0,NNW,6.9,-,0.00,Rain,Light Rain,330,2012-10-07 16:56:00
1:56 PM,53.1,46.9,80,30.08,10.0,Calm,Calm,-,0.04,Rain,Light Rain,0,2012-10-07 17:56:00
2:56 PM,53.1,48.0,83,30.08,10.0,Calm,Calm,-,0.03,Rain,Light Rain,0,2012-10-07 18:56:00
3:56 PM,53.1,48.0,83,30.05,10.0,Calm,Calm,-,0.01,,Overcast,0,2012-10-07 19:56:00
4:56 PM,53.1,46.9,80,30.03,10.0,Calm,Calm,-,N/A,,Overcast,0,2012-10-07 20:56:00
5:56 PM,52.0,46.9,83,30.03,10.0,Calm,Calm,-,N/A,,Overcast,0,2012-10-07 21:56:00
6:56 PM,52.0,48.0,86,30.03,10.0,Calm,Calm,-,N/A,,Overcast,0,2012-10-07 22:56:00
7:56 PM,52.0,48.0,86,30.04,10.0,WNW,3.5,-,0.00,Rain,Light Rain,300,2012-10-07 23:56:00
8:56 PM,52.0,48.0,86,30.07,10.0,WNW,4.6,-,0.00,Rain,Light Rain,290,2012-10-08 00:56:00
9:56 PM,51.1,46.0,83,30.10,10.0,WNW,6.9,-,0.01,Rain,Light Rain,290,2012-10-08 01:56:00
10:56 PM,50.0,46.0,86,30.10,10.0,NW,6.9,-,0.03,Rain,Light Rain,310,2012-10-08 02:56:00
11:56 PM,48.9,46.0,90,30.11,10.0,NW,5.8,-,0.01,Rain,Light Rain,310,2012-10-08 03:56:00